Wind_Speed
7 7 7 8 10 11 13 14 16 16 17 17 19 20 19 19 19 19 20 20 22 23 24 25 25 25 25 26 27 27 28 29 29 30 31 32 32 33 33 34 34 35 35
8 8 9 10 12 13 13 14 15 16 16 17 18 19 20 20 20 19 20 21 22 24 25 26 26 27 28 28 29 30 31 31 32 33 33 34 35 36 37 37 38 39 39
10 11 12 13 13 13 14 14 15 16 17 17 18 19 20 19 20 20 20 21 22 24 27 28 29 29 30 31 31 31 33 34 34 35 36 37 38 39 40 41 41 42 42
14 15 15 16 16 16 16 16 17 17 17 18 18 19 19 20 20 20 20 21 23 24 26 28 30 31 32 33 33 34 35 36 37 38 39 40 41 42 42 43 44 45 45
18 18 19 19 20 19 19 19 19 19 19 20 20 20 21 21 22 23 23 23 24 25 27 28 30 32 33 35 36 37 38 39 40 42 42 43 45 46 46 47 48 49 49
22 22 23 23 23 22 22 22 22 22 22 22 22 22 23 23 24 25 26 27 28 28 29 30 31 32 34 37 39 41 42 44 45 46 47 49 50 51 52 53 54 54 54
27 27 27 27 26 27 26 25 25 25 25 26 26 25 25 25 26 26 28 29 30 31 32 33 34 35 37 38 41 43 45 47 49 51 52 54 56 57 58 58 59 59 60
32 32 31 31 30 30 29 29 28 28 28 29 29 28 28 28 29 30 32 33 34 35 36 37 38 40 41 43 45 47 48 50 52 55 57 59 61 62 62 63 64 65 65
36 36 34 34 32 32 32 32 31 31 31 31 31 32 32 31 32 33 35 37 39 40 41 43 44 46 47 49 51 52 54 55 57 59 61 63 65 66 68 69 69 70 70
38 38 38 36 36 37 36 34 34 34 34 35 36 36 36 37 37 38 40 42 43 45 47 48 50 52 54 55 57 58 59 61 63 65 67 69 70 71 72 74 74 75 75
37 38 38 38 39 39 37 37 38 38 39 39 40 40 41 42 43 44 45 46 48 50 51 54 56 57 59 60 61 63 65 66 68 70 72 73 74 75 76 76 77 77 77
39 40 41 42 42 41 41 41 41 42 43 43 44 45 46 47 48 49 50 51 53 55 57 59 60 62 63 65 66 68 70 71 72 73 74 75 76 76 76 76 76 76 76
41 42 44 45 44 45 45 44 45 46 47 47 48 49 51 52 53 54 55 56 57 58 61 63 64 65 66 68 70 71 72 73 74 74 75 75 75 75 75 75 74 74 73
44 44 45 46 45 46 47 48 48 49 51 52 53 54 56 57 58 59 59 60 60 61 63 65 66 67 68 69 71 71 72 72 72 72 73 73 72 72 72 71 71 70 70
46 47 48 48 49 50 51 52 53 54 55 56 58 59 60 61 62 62 62 62 63 63 63 65 67 68 68 69 69 69 69 69 69 69 69 69 69 69 68 67 67 67 66
49 49 50 51 53 54 56 57 58 58 59 60 61 61 62 62 62 63 63 64 64 64 64 64 64 65 65 65 65 65 65 65 66 66 66 66 65 65 64 63 63 62 61
52 53 55 56 57 58 59 60 61 62 62 62 62 62 63 63 64 64 64 64 63 63 62 61 61 62 62 61 62 62 63 63 62 62 61 60 59 58 57 56 56 56 56
55 56 58 60 61 61 62 62 63 63 63 64 64 65 65 64 64 63 63 62 61 60 59 58 58 58 59 59 59 59 59 58 57 55 53 53 52 51 51 51 50 50 51
58 59 60 61 62 63 64 64 64 64 65 65 65 64 64 64 63 61 60 59 59 58 57 56 55 56 56 56 55 55 53 51 49 49 48 47 46 45 45 44 44 44 44
59 60 61 62 63 64 64 64 64 64 64 64 64 63 63 61 60 59 58 57 56 55 54 54 53 52 52 52 50 48 46 45 44 43 41 40 40 39 39 39 39 39 39
58 59 60 61 62 63 63 63 63 63 62 62 62 61 60 59 57 56 55 54 53 52 51 50 49 48 47 45 43 41 39 36 37 37 36 37 37 37 38 37 36 36 36
57 58 59 59 60 61 61 61 60 60 59 59 58 57 55 54 52 51 50 50 49 47 46 44 43 41 38 37 35 33 32 31 31 33 33 34 34 35 35 35 34 33 33
55 56 56 57 58 58 57 57 56 56 55 54 52 51 49 48 47 46 45 44 43 41 39 36 34 32 31 29 27 27 28 29 29 30 29 30 32 32 32 31 30 30 29
52 53 54 54 55 54 54 53 52 51 50 49 47 45 43 42 40 39 38 37 35 33 30 28 25 24 23 23 23 23 24 25 27 28 27 27 28 29 29 28 27 26 27
51 51 51 51 51 51 50 49 47 45 43 41 39 36 35 33 32 30 28 27 26 24 21 19 18 18 18 19 20 21 22 23 24 26 26 26 25 25 26 25 24 22 22
48 48 47 45 44 43 43 41 39 37 34 32 29 27 26 24 23 21 19 18 17 16 15 15 15 15 16 17 19 20 21 21 22 22 23 23 23 22 23 23 22 21 19
Wind_Direction
332 331 333 329 330 331 332 332 331 325 319 316 314 312 307 297 290 286 283 279 274 273 274 273 273 272 271 270 269 269 268 268 268 267 267 266 266 266 266 266 266 266 265
324 319 322 323 323 326 329 331 330 325 323 319 315 312 309 303 296 289 284 278 275 273 274 274 274 273 270 270 269 268 268 268 268 268 268 267 267 267 267 266 267 267 266
313 314 315 315 317 320 322 323 324 319 319 319 317 314 311 307 302 294 288 282 277 276 276 276 274 273 271 270 269 269 270 270 269 269 269 269 269 269 268 268 267 267 267
305 307 310 311 312 313 314 318 323 321 319 317 316 314 311 307 303 297 292 288 284 282 278 277 276 274 273 272 272 272 272 271 271 272 271 271 271 271 270 269 269 268 268
300 301 304 305 309 309 309 312 316 316 315 314 311 310 308 305 302 297 294 291 289 286 282 279 277 276 274 274 275 274 273 272 272 272 272 272 272 271 271 271 270 269 268
297 297 298 298 302 304 306 306 309 308 309 309 308 305 304 301 299 297 295 293 289 288 285 282 280 280 279 277 275 275 274 274 273 272 272 272 272 272 272 271 271 270 269
292 292 293 294 297 298 299 302 302 302 303 304 304 302 299 298 297 295 293 291 289 288 287 285 282 280 280 280 278 277 276 275 274 274 273 273 272 272 271 271 271 270 269
289 288 288 290 292 292 294 297 298 300 300 300 299 298 297 295 294 293 291 289 288 288 286 285 284 282 281 280 278 277 275 275 274 274 274 273 273 272 271 271 271 270 270
286 286 286 288 288 290 293 295 297 298 298 297 295 295 293 291 290 290 289 289 288 287 287 286 285 284 282 281 279 278 277 275 274 274 273 272 272 271 271 271 271 270 270
285 286 287 287 287 290 291 293 295 296 296 295 294 293 292 291 289 289 288 287 287 286 285 285 285 284 283 281 280 279 278 277 275 274 273 272 272 271 271 271 271 271 271
287 287 289 291 292 292 291 292 294 294 296 294 293 292 291 290 289 289 288 287 286 285 285 284 283 282 281 280 280 279 278 277 276 275 274 274 274 274 274 273 273 273 273
285 286 288 290 291 291 292 293 293 293 294 294 292 291 291 290 289 288 287 286 285 285 284 283 282 281 281 280 280 279 278 278 277 276 276 276 276 277 277 276 276 275 274
284 287 288 289 289 291 292 292 293 292 292 292 291 291 290 290 289 289 288 287 285 285 284 284 283 282 282 281 280 280 280 279 279 278 278 278 278 278 278 278 277 276 275
285 287 287 288 290 291 292 292 292 292 291 291 291 290 290 290 290 289 288 287 286 286 285 285 284 284 283 282 282 282 282 282 282 281 280 280 280 280 279 279 277 276 275
285 286 287 287 289 290 290 290 291 290 290 290 290 290 290 290 290 289 289 288 287 286 286 285 285 285 285 284 284 284 284 283 283 283 283 283 283 282 281 280 278 277 276
286 287 288 288 289 289 289 289 289 289 290 290 290 290 290 290 290 289 289 288 288 288 287 286 286 285 285 285 285 286 286 286 286 286 285 285 284 283 282 281 279 278 276
286 287 287 288 289 289 288 288 289 289 289 290 290 290 290 290 290 290 290 289 289 289 288 287 287 287 286 286 287 287 288 288 288 288 287 286 285 284 283 282 280 279 277
286 286 287 288 288 288 288 289 290 290 290 290 290 290 290 290 290 290 290 289 289 289 289 288 288 288 288 289 289 289 290 290 290 289 288 288 287 286 285 284 282 280 278
285 286 287 288 289 289 289 290 290 290 290 290 290 290 290 290 290 289 289 288 289 289 289 289 289 289 290 290 291 291 291 291 291 290 290 289 288 287 286 285 284 282 279
287 287 288 288 289 289 289 289 289 289 289 289 289 289 289 289 289 288 288 288 289 289 289 290 290 291 291 292 292 293 293 293 293 292 293 292 291 290 289 287 286 284 281
288 288 288 288 288 288 288 288 288 289 289 289 289 289 289 288 288 288 288 288 288 289 289 290 291 292 293 293 295 295 295 295 296 296 296 295 294 293 291 290 288 285 282
289 289 289 289 289 288 288 288 289 289 289 289 289 289 289 289 288 288 288 288 288 289 289 291 292 293 294 295 296 297 299 299 299 299 300 299 298 297 295 292 290 288 284
291 290 290 290 289 289 289 289 289 289 289 289 289 289 289 288 289 289 289 289 289 289 290 292 293 294 296 298 300 302 304 305 305 304 303 302 302 301 299 297 294 290 286
292 292 291 291 291 290 290 290 290 290 290 289 289 288 288 288 288 288 289 290 291 292 294 296 298 300 302 304 306 308 310 311 310 310 310 309 308 307 305 303 299 294 289
294 294 293 292 292 291 290 290 290 290 290 290 290 289 288 289 290 291 293 294 295 298 301 303 306 308 310 313 315 317 318 318 317 316 317 317 315 314 312 310 306 301 295
297 297 296 295 294 293 292 291 290 290 290 290 290 290 291 292 293 294 295 297 301 306 312 316 319 322 323 325 327 327 326 326 326 325 324 324 323 321 319 317 315 311 305
Height
5895 5894 5893 5892 5890 5888 5886 5883 5881 5878 5876 5873 5871 5868 5867 5866 5865 5864 5863 5862 5861 5860 5860 5859 5859 5858 5858 5857 5857 5857 5857 5856 5856 5855 5855 5854 5854 5853 5853 5853 5853 5853 5853
5892 5891 5890 5889 5887 5885 5882 5880 5878 5875 5873 5870 5867 5864 5862 5861 5860 5859 5858 5857 5855 5854 5853 5853 5852 5851 5851 5850 5850 5850 5849 5849 5848 5847 5847 5846 5846 5845 5845 5844 5844 5844 5844
5889 5888 5887 5885 5883 5881 5879 5877 5874 5872 5869 5866 5863 5861 5858 5856 5855 5853 5852 5851 5850 5848 5847 5846 5845 5844 5844 5843 5842 5842 5841 5841 5840 5839 5838 5838 5837 5836 5836 5835 5834 5834 5834
5884 5883 5882 5880 5878 5876 5874 5872 5870 5867 5865 5862 5860 5857 5854 5852 5850 5848 5846 5845 5844 5842 5841 5840 5839 5837 5836 5836 5835 5834 5833 5832 5832 5830 5829 5828 5827 5826 5825 5825 5824 5824 5823
5879 5877 5875 5874 5872 5870 5868 5866 5864 5862 5860 5858 5856 5853 5851 5848 5845 5843 5841 5839 5838 5836 5835 5833 5832 5830 5829 5828 5826 5825 5824 5823 5822 5820 5819 5818 5817 5816 5814 5813 5812 5812 5811
5872 5870 5868 5867 5865 5864 5862 5860 5859 5857 5855 5853 5851 5848 5846 5843 5841 5838 5836 5833 5832 5830 5828 5826 5825 5823 5821 5819 5818 5816 5814 5813 5811 5810 5808 5807 5805 5804 5802 5801 5800 5799 5798
5865 5864 5862 5860 5859 5857 5856 5854 5852 5851 5849 5847 5845 5843 5840 5838 5835 5832 5830 5827 5825 5823 5821 5819 5817 5815 5813 5810 5808 5806 5804 5801 5799 5797 5795 5793 5791 5790 5788 5787 5785 5784 5784
5857 5856 5854 5852 5851 5850 5848 5847 5845 5843 5842 5840 5839 5836 5834 5832 5829 5826 5823 5821 5818 5815 5813 5810 5808 5806 5803 5800 5798 5795 5792 5789 5787 5784 5781 5779 5776 5774 5772 5771 5769 5768 5768
5848 5847 5845 5844 5843 5841 5840 5839 5837 5835 5834 5832 5830 5829 5827 5824 5822 5819 5816 5813 5809 5806 5803 5800 5797 5794 5791 5788 5785 5782 5779 5776 5773 5769 5766 5763 5760 5758 5755 5754 5752 5751 5750
5840 5838 5836 5835 5834 5832 5831 5830 5828 5826 5825 5823 5821 5819 5817 5815 5813 5810 5807 5803 5800 5796 5792 5788 5785 5781 5777 5774 5771 5767 5764 5761 5757 5753 5749 5746 5742 5740 5737 5735 5733 5732 5731
5832 5830 5828 5827 5825 5823 5822 5820 5819 5817 5815 5813 5811 5809 5807 5804 5801 5799 5796 5792 5788 5783 5779 5775 5771 5767 5763 5759 5755 5751 5747 5743 5739 5735 5731 5727 5723 5720 5718 5715 5713 5712 5710
5824 5822 5820 5818 5816 5814 5812 5811 5809 5807 5805 5802 5800 5797 5795 5792 5789 5786 5783 5779 5775 5770 5764 5760 5755 5751 5747 5742 5737 5733 5728 5724 5720 5716 5711 5707 5704 5700 5697 5694 5692 5690 5689
5816 5814 5812 5809 5806 5804 5802 5800 5798 5796 5793 5790 5787 5784 5781 5778 5774 5771 5768 5764 5760 5755 5749 5743 5738 5733 5729 5723 5718 5713 5709 5704 5700 5696 5691 5687 5683 5680 5677 5674 5671 5669 5667
5807 5805 5802 5799 5796 5794 5792 5789 5786 5783 5780 5777 5774 5770 5767 5763 5759 5755 5751 5748 5743 5739 5733 5726 5719 5714 5709 5704 5699 5694 5689 5684 5680 5676 5672 5667 5663 5660 5656 5653 5650 5648 5646
5797 5794 5792 5789 5786 5783 5780 5777 5774 5770 5767 5763 5759 5755 5751 5747 5742 5738 5734 5730 5726 5722 5716 5709 5702 5695 5690 5685 5680 5675 5670 5665 5661 5656 5652 5647 5643 5639 5636 5633 5630 5627 5625
5786 5784 5781 5777 5774 5771 5767 5764 5760 5756 5752 5748 5744 5739 5735 5730 5725 5720 5715 5711 5707 5703 5699 5692 5685 5678 5672 5667 5662 5657 5652 5647 5642 5637 5633 5628 5624 5620 5616 5613 5610 5608 5605
5775 5772 5769 5765 5761 5757 5753 5749 5745 5741 5737 5732 5727 5723 5718 5713 5708 5703 5698 5692 5688 5684 5680 5675 5668 5662 5656 5651 5645 5640 5635 5630 5625 5619 5615 5610 5606 5601 5597 5594 5591 5589 5587
5763 5760 5756 5751 5747 5742 5738 5734 5729 5725 5720 5715 5710 5706 5701 5696 5691 5686 5680 5675 5670 5666 5663 5659 5652 5646 5640 5635 5630 5625 5619 5613 5608 5603 5598 5594 5590 5585 5582 5578 5575 5572 5570
5751 5746 5742 5737 5732 5727 5723 5718 5713 5708 5703 5698 5693 5688 5683 5679 5674 5669 5664 5659 5655 5650 5646 5643 5638 5631 5626 5620 5616 5610 5605 5599 5594 5589 5585 5580 5576 5572 5568 5564 5561 5558 5555
5737 5732 5727 5722 5717 5712 5707 5702 5696 5691 5686 5681 5676 5671 5667 5662 5657 5653 5648 5644 5640 5636 5631 5627 5623 5618 5612 5607 5602 5597 5592 5586 5581 5576 5572 5568 5563 5559 5555 5552 5548 5545 5542
5723 5718 5712 5707 5701 5696 5690 5685 5680 5675 5669 5664 5659 5655 5650 5645 5641 5637 5633 5629 5626 5622 5618 5614 5610 5605 5600 5595 5590 5585 5581 5576 5571 5566 5562 5557 5553 5548 5544 5540 5536 5533 5530
5708 5702 5697 5691 5685 5680 5674 5669 5663 5658 5653 5649 5644 5639 5635 5630 5626 5622 5618 5615 5612 5609 5606 5602 5598 5594 5589 5585 5581 5576 5572 5568 5564 5559 5553 5548 5542 5538 5533 5529 5525 5522 5519
5693 5687 5681 5675 5669 5663 5658 5653 5648 5643 5638 5633 5629 5625 5620 5616 5613 5609 5606 5602 5600 5597 5595 5592 5588 5585 5581 5577 5573 5569 5564 5560 5555 5550 5545 5540 5534 5528 5523 5519 5515 5512 5509
5678 5672 5666 5659 5653 5647 5642 5637 5632 5628 5624 5619 5615 5611 5608 5604 5601 5598 5595 5593 5590 5588 5585 5583 5580 5577 5574 5571 5567 5563 5559 5554 5548 5542 5537 5532 5526 5521 5515 5511 5507 5503 5500
5664 5657 5651 5644 5638 5633 5627 5623 5619 5614 5610 5607 5603 5600 5597 5594 5592 5590 5588 5585 5583 5581 5579 5577 5574 5572 5569 5565 5562 5558 5554 5549 5543 5537 5531 5526 5520 5515 5509 5504 5500 5496 5492
5649 5643 5636 5630 5624 5619 5614 5610 5606 5603 5599 5596 5594 5592 5590 5588 5586 5584 5582 5581 5579 5577 5575 5573 5570 5568 5565 5561 5558 5554 5549 5544 5539 5533 5527 5521 5516 5510 5505 5499 5494 5490 5486